TEST Weather Reports


time (UTC)temp
C
wind
direction
speed
KPH
gust
KPH
rain 1hr
cm
rain 24hr
cm
rain mn
cm
humidity
%
barometer
mb
20260505101817 8 190 0.0 0.0 0.00 0.30 0.05 89 1023.9
20260505101329 8 190 0.0 0.0 0.00 0.30 0.05 89 1023.9
20260505100847 8 194 0.0 0.0 0.00 0.30 0.05 89 1023.9
20260505100351 8 196 0.0 0.0 0.00 0.30 0.05 89 1023.8
20260505095813 8 196 0.0 1.6 0.00 0.30 0.05 89 1023.9
20260505095315 8 196 0.0 1.6 0.00 0.30 0.05 89 1023.8
20260505094834 8 196 0.0 0.0 0.00 0.30 0.05 88 1023.8
20260505094321 8 196 0.0 3.2 0.00 0.30 0.05 88 1023.8
20260505093816 8 200 0.0 3.2 0.00 0.30 0.05 88 1023.8
20260505093321 9 202 0.0 0.0 0.00 0.30 0.05 88 1023.7
20260505092822 9 201 0.0 0.0 0.00 0.30 0.05 87 1023.6
20260505092326 9 201 0.0 0.0 0.00 0.30 0.05 87 1023.7
20260505091830 9 201 0.0 1.6 0.00 0.30 0.05 87 1023.6
20260505091333 10 200 0.0 1.6 0.00 0.30 0.05 87 1023.6
20260505090835 10 216 0.0 1.6 0.00 0.30 0.05 87 1023.5
20260505090351 10 233 0.0 0.0 0.00 0.30 0.05 86 1023.4
20260505085810 10 234 0.0 4.8 0.00 0.30 0.05 85 1023.3
20260505085315 10 234 0.0 4.8 0.00 0.30 0.05 84 1023.4
20260505084817 10 236 0.0 0.0 0.00 0.30 0.05 83 1023.1
20260505084321 10 236 0.0 0.0 0.00 0.30 0.05 83 1023.1
20260505083818 10 236 0.0 0.0 0.00 0.30 0.05 83 1023.1
20260505083318 10 236 0.0 0.0 0.00 0.30 0.05 82 1023.1
20260505082819 11 236 0.0 0.0 0.00 0.30 0.05 82 1023.1
20260505082322 11 236 0.0 1.6 0.00 0.30 0.05 82 1023.1
20260505081848 11 236 0.0 1.6 0.00 0.30 0.05 81 1022.9
20260505081329 11 236 0.0 0.0 0.00 0.30 0.05 81 1023.0
20260505080856 12 236 0.0 0.0 0.00 0.30 0.05 81 1023.0
20260505080333 12 236 0.0 1.6 0.00 0.30 0.05 80 1022.9
20260505075814 12 236 0.0 3.2 0.00 0.30 0.05 80 1022.9
20260505075319 12 236 0.0 3.2 0.00 0.30 0.05 79 1022.9
20260505074822 12 236 0.0 3.2 0.00 0.30 0.05 78 1022.8
20260505074325 12 236 1.6 4.8 0.00 0.30 0.05 78 1022.9
20260505073823 13 234 1.6 4.8 0.00 0.30 0.05 77 1022.8
20260505073328 13 224 1.6 6.4 0.00 0.30 0.05 77 1022.7
20260505072810 13 224 3.2 6.4 0.00 0.30 0.05 76 1022.7
20260505072316 13 233 1.6 4.8 0.00 0.30 0.05 76 1022.7
20260505071817 13 233 1.6 4.8 0.00 0.30 0.05 75 1022.6
20260505071341 13 233 1.6 4.8 0.00 0.30 0.05 75 1022.6
20260505070818 13 231 3.2 4.8 0.00 0.30 0.05 74 1022.6
20260505070344 13 225 3.2 6.4 0.00 0.30 0.05 74 1022.4
20260505065825 14 223 3.2 8.0 0.00 1.19 0.05 73 1022.4
20260505065310 14 223 6.4 9.7 0.00 1.19 0.05 72 1022.4
20260505064856 14 211 4.8 12.9 0.00 1.19 0.05 72 1022.3
20260505064319 15 207 6.4 12.9 0.00 1.19 0.05 70 1022.1
20260505063818 15 222 6.4 12.9 0.00 1.19 0.05 70 1022.2
20260505063323 15 211 6.4 8.0 0.00 1.19 0.05 69 1022.0
20260505062826 15 220 3.2 14.5 0.00 1.19 0.05 68 1022.0
20260505062331 16 246 6.4 14.5 0.00 1.19 0.05 68 1022.2
20260505061815 16 275 3.2 6.4 0.00 1.19 0.05 67 1022.0
20260505061340 16 252 3.2 6.4 0.00 1.19 0.05 66 1022.0
20260505060822 16 256 3.2 6.4 0.00 1.19 0.05 67 1022.0
20260505055822 16 230 1.6 3.2 0.00 1.60 0.05 68 1022.0
20260505055316 16 279 0.0 8.0 0.00 1.60 0.05 68 1022.0
20260505054821 16 279 1.6 9.7 0.00 1.60 0.05 67 1022.0
20260505053827 15 283 1.6 8.0 0.00 1.60 0.05 68 1022.0
20260505053333 15 265 3.2 16.1 0.00 1.60 0.05 68 1021.9
20260505052835 15 221 6.4 16.1 0.00 1.60 0.05 68 1021.9
20260505052313 15 219 11.3 16.1 0.00 1.60 0.05 68 1021.8
20260505051340 15 269 3.2 12.9 0.00 1.60 0.05 68 1021.8
20260505050844 15 275 3.2 12.9 0.00 1.60 0.05 66 1021.8
20260505041349 15 185 8.0 17.7 0.00 1.70 0.05 71 1021.5
20260505040833 15 185 12.9 17.7 0.00 1.70 0.05 72 1021.5
20260505040317 15 190 11.3 16.1 0.00 1.70 0.05 72 1021.5
20260505035818 15 185 4.8 14.5 0.00 1.91 0.05 71 1021.6
20260505035323 15 254 4.8 14.5 0.00 1.91 0.05 70 1021.5
20260505034840 15 212 6.4 17.7 0.00 1.91 0.05 69 1021.6
20260505034321 15 204 12.9 20.9 0.00 1.91 0.05 72 1021.6
20260505033821 15 200 12.9 20.9 0.00 1.91 0.05 70 1021.6
20260505033324 15 194 6.4 12.9 0.00 1.91 0.05 73 1021.7
20260505032847 15 211 6.4 16.1 0.00 1.91 0.05 69 1021.8
20260505032328 15 259 6.4 16.1 0.00 1.91 0.05 71 1021.8
20260505031832 15 237 8.0 14.5 0.00 1.91 0.05 70 1021.9
20260505031355 15 222 4.8 19.3 0.00 1.91 0.05 71 1021.9
20260505030812 15 207 9.7 19.3 0.00 1.91 0.05 72 1022.0
20260505025815 15 209 9.7 20.9 0.00 6.30 0.05 73 1022.0
20260505025319 15 263 12.9 20.9 0.00 6.30 0.05 71 1022.2
20260505024323 15 185 12.9 20.9 0.00 6.30 0.05 71 1022.1
20260505023819 15 180 16.1 20.9 0.00 6.30 0.05 71 1022.3
20260505023342 15 185 12.9 20.9 0.00 6.30 0.05 75 1022.2
20260505022837 14 194 6.4 14.5 0.00 6.30 0.05 74 1022.4
20260505022339 14 218 8.0 14.5 0.00 6.30 0.05 76 1022.4
20260505021321 14 205 12.9 17.7 0.00 6.30 0.05 78 1022.6
20260505020814 13 207 6.4 12.9 0.00 6.30 0.05 79 1022.7
20260505015820 13 198 9.7 19.3 0.00 6.40 0.05 80 1022.8
20260505015322 13 195 12.9 19.3 0.00 6.40 0.05 81 1022.8
20260505014326 14 165 12.9 17.7 0.00 6.40 0.05 81 1022.9
20260505013828 13 168 11.3 19.3 0.00 6.40 0.05 82 1022.8
20260505012828 13 190 14.5 19.3 0.00 6.40 0.05 82 1022.9
20260505012318 13 203 11.3 17.7 0.00 6.40 0.05 83 1022.9
20260505011821 13 174 11.3 16.1 0.00 6.40 0.05 83 1023.0
20260505011323 13 153 8.0 16.1 0.00 6.40 0.05 85 1023.0
20260505010825 13 156 9.7 16.1 0.00 6.40 0.05 87 1022.9
20260505010317 13 234 4.8 14.5 0.00 6.40 0.05 86 1022.9
20260505005826 12 204 8.0 14.5 0.00 6.60 0.05 88 1022.9
20260505005330 12 180 9.7 14.5 0.00 6.60 0.05 89 1022.9
20260505004823 12 165 4.8 16.1 0.00 6.60 0.05 89 1022.9
20260505004322 12 173 12.9 16.1 0.00 6.60 0.05 90 1022.8
20260505003822 12 133 3.2 17.7 0.00 6.60 0.05 91 1023.0
20260505002827 12 173 11.3 17.7 0.00 6.60 0.05 92 1022.9
20260505002326 12 185 8.0 16.1 0.00 6.60 0.05 94 1023.0
20260505001325 12 180 12.9 17.7 0.00 6.60 0.05 95 1022.6
20260505000819 11 180 8.0 16.1 0.00 6.60 0.05 95 1022.5
20260505000322 11 194 9.7 16.1 0.00 6.60 0.05 95 1022.5
20260504235823 11 146 6.4 12.9 0.00 6.81 0.05 96 1022.4
20260504235325 11 173 6.4 12.9 0.00 6.81 0.05 97 1022.5
20260504234826 11 180 1.6 8.0 0.00 6.81 0.05 96 1022.5
20260504234327 11 296 0.0 6.4 0.00 6.81 0.05 96 1022.6
20260504233342 11 185 3.2 4.8 0.00 6.81 0.05 97 1022.5
20260504232820 11 315 0.0 9.7 0.00 6.81 0.05 97 1022.4
20260504232322 11 265 1.6 6.4 0.00 6.81 0.05 96 1022.4
20260504231823 11 300 1.6 6.4 0.00 6.81 0.05 96 1022.4
20260504231320 11 274 1.6 6.4 0.00 6.81 0.05 97 1022.4
20260504230813 11 244 1.6 6.4 0.00 6.81 0.05 97 1022.3
20260504230315 11 351 1.6 6.4 0.00 6.81 0.05 97 1022.4
20260504225323 11 269 1.6 4.8 0.00 7.11 0.05 97 1022.4
20260504224828 11 338 1.6 4.8 0.00 7.11 0.05 97 1022.5
20260504224311 11 324 1.6 4.8 0.00 7.11 0.05 97 1022.4
20260504223835 11 9 3.2 8.0 0.00 7.11 0.05 97 1022.3
20260504222834 10 360 1.6 6.4 0.00 7.11 0.05 97 1022.3
20260504222327 10 349 4.8 6.4 0.00 7.11 0.05 97 1022.2
20260504221849 10 354 1.6 3.2 0.00 7.11 0.05 97 1022.1
20260504221310 9 356 1.6 3.2 0.00 7.11 0.05 97 1022.2
20260504220833 9 357 0.0 3.2 0.00 7.11 0.05 97 1022.1
20260504220331 8 7 1.6 3.2 0.00 7.11 0.05 97 1021.9
20260504215813 8 7 0.0 3.2 0.00 7.29 0.05 97 1021.9
20260504215331 8 6 0.0 1.6 0.00 7.29 0.05 97 1021.9
20260504214815 7 6 0.0 1.6 0.00 7.29 0.05 96 1021.8
20260504214347 7 6 0.0 1.6 0.00 7.29 0.05 96 1021.7
20260504213328 7 6 1.6 3.2 0.00 7.29 0.05 97 1021.7
20260504212852 7 6 0.0 1.6 0.10 7.29 0.05 97 1021.7
20260504212328 7 6 0.0 3.2 0.10 7.29 0.05 97 1021.5
20260504211812 6 6 1.6 3.2 0.10 7.29 0.05 96 1021.4
20260504211313 6 8 0.0 1.6 0.10 7.29 0.05 95 1021.3
20260504210835 6 8 0.0 1.6 0.10 7.29 0.05 95 1021.3
20260504205817 7 9 0.0 3.2 0.10 7.49 0.05 95 1021.0
20260504205335 7 8 1.6 3.2 0.10 7.49 0.05 95 1020.9
20260504204812 7 355 0.0 1.6 0.10 7.49 0.05 96 1020.8
20260504204334 7 355 0.0 1.6 0.10 7.49 0.05 96 1020.7
20260504203320 6 355 0.0 3.2 0.10 7.49 0.05 95 1020.6
20260504202822 6 355 0.0 3.2 0.00 7.39 0.03 95 1020.6
20260504201820 7 357 0.0 3.2 0.00 7.39 0.03 95 1020.6
20260504201321 7 357 0.0 3.2 0.00 7.39 0.03 95 1020.5
20260504200823 7 357 0.0 1.6 0.00 7.39 0.03 95 1020.4
20260504200326 7 357 0.0 1.6 0.00 7.39 0.03 95 1020.5
20260504195826 7 357 0.0 1.6 0.00 7.70 0.03 95 1020.4
20260504195327 7 357 0.0 1.6 0.00 7.70 0.03 95 1020.3
20260504194819 7 357 0.0 3.2 0.00 7.70 0.03 95 1020.4
20260504194321 8 357 0.0 3.2 0.00 7.70 0.03 94 1020.3
20260504193825 8 333 0.0 1.6 0.00 7.70 0.03 95 1020.3
20260504193328 8 333 0.0 1.6 0.00 7.70 0.03 95 1020.4
20260504192852 8 306 0.0 1.6 0.00 7.70 0.03 96 1020.3
20260504192335 8 304 0.0 3.2 0.00 7.70 0.03 96 1020.3
20260504191813 8 302 0.0 4.8 0.00 7.70 0.03 96 1020.2
20260504191313 8 342 0.0 4.8 0.00 7.70 0.03 96 1020.2
20260504190323 8 329 0.0 4.8 0.00 7.70 0.03 96 1020.1
20260504185824 8 325 1.6 4.8 0.00 8.00 0.03 96 1019.9
20260504185329 8 320 1.6 4.8 0.00 8.00 0.03 96 1019.8
20260504184828 8 344 0.0 4.8 0.00 8.00 0.03 95 1019.8
20260504184337 8 317 1.6 4.8 0.00 8.00 0.03 95 1019.7
20260504183814 8 334 0.0 6.4 0.00 8.00 0.03 96 1019.8
20260504183315 8 329 1.6 4.8 0.00 8.00 0.03 96 1019.6
20260504182819 8 331 1.6 4.8 0.00 8.00 0.03 95 1019.7
20260504182338 8 342 1.6 4.8 0.00 8.00 0.03 96 1019.6
20260504181821 8 352 0.0 8.0 0.00 8.00 0.03 96 1019.5
20260504181345 8 346 1.6 6.4 0.00 8.00 0.03 96 1019.5
20260504180850 8 354 1.6 6.4 0.00 8.00 0.03 96 1019.5
20260504180334 8 340 1.6 8.0 0.00 8.00 0.03 95 1019.5
20260504175814 8 318 1.6 6.4 0.00 8.41 0.03 96 1019.3
20260504174815 8 310 1.6 11.3 0.00 8.41 0.03 96 1019.3
20260504174320 8 356 3.2 11.3 0.00 8.41 0.03 96 1019.2
20260504173350 8 323 1.6 8.0 0.00 8.41 0.03 96 1019.3
20260504172830 8 304 3.2 8.0 0.00 8.41 0.03 96 1019.2
20260504172330 8 323 4.8 9.7 0.00 8.41 0.03 96 1019.3
20260504171827 8 338 3.2 11.3 0.00 8.41 0.03 96 1019.2
20260504171310 7 358 3.2 9.7 0.00 8.41 0.03 96 1019.3
20260504170815 7 338 6.4 11.3 0.00 8.41 0.03 96 1019.3
20260504170318 7 317 1.6 6.4 0.00 8.41 0.03 95 1019.4
20260504160320 7 312 0.0 4.8 0.10 9.09 0.03 95 1019.8
20260504150833 8 351 0.0 4.8 0.00 10.01 0.00 95 1020.0
20260504150314 8 307 0.0 4.8 0.00 10.01 0.00 95 1019.9
20260504141330 8 320 0.0 3.2 0.00 11.20 0.00 95 1020.3
20260504140812 8 335 0.0 3.2 0.00 11.20 0.00 95 1020.3
20260504130812 8 320 1.6 4.8 0.00 12.80 2.24 95 1019.9
20260504130336 8 318 1.6 4.8 0.00 12.80 2.24 95 1019.9
20260504110316 10 331 0.0 1.6 0.00 16.41 2.21 94 1019.8